Location: Casilda
(33.0440°S, 61.1680°W)
Time: 04:03:33
(UTC-03:00)

ISS - Pass Details

Date: 16 June 2018
Orbit: 402 x 406 km, 51.6° (Epoch: 22 June)

Event Time Altitude Azimuth Distance (km) Brightness Sun altitude
Exits shadow 07:04:06 22° 238° (WSW) 955 -2.6 -12.7°
Maximum altitude 07:06:03 62° 314° (NW) 467 -3.7 -12.4°
Drops below altitude 10° 07:09:18 10° 35° (NE) 1,468 -0.1 -11.7°
Sets 07:11:23 0° 38° (NE) 2,322 1.1 -11.3°
